[Date Prev][Date Next][Thread Prev][Thread Next] - [Date Index][Thread Index][Author Index]

2 Line ISS Keps 8-6



ISS
1 25544U 98067A   02218.15576968  .00019943  00000-0  27292-3 0   172
2 25544  51.6351 162.0987 0018100 108.4656 354.3971 15.57226102211823


----
Via the sarex mailing list at AMSAT.ORG courtesy of AMSAT-NA.
To unsubscribe, send "unsubscribe sarex" to Majordomo@amsat.org



AMSAT Top AMSAT Home